Weather History for Morgantown, WV

Change the Weather History Date:

Monday, March 10, 2014

  Actual Average Record
Temperature  
Mean Temperature 50 °F 40 °F  
Max Temperature 62 °F 50 °F 75 °F (1986)
Min Temperature 38 °F 30 °F 4 °F (1996)
Degree Days  
Heating Degree Days 15 25  
Month to date heating degree days 333 264  
Since 1 July heating degree days 4459 4153  
Cooling Degree Days 0 0  
Month to date cooling degree days 0 0  
Year to date cooling degree days 0 0  
Moisture  
Dew Point 28 °F    
Average Humidity 44    
Maximum Humidity 59    
Minimum Humidity 29    
Precipitation  
Precipitation 0.00 in 0.11 in 1.02 in (1992)
Month to date precipitation 0.52 1.09  
Year to date precipitation 5.69 6.50  
Sea Level Pressure  
Sea Level Pressure 29.84 in    
Wind  
Wind Speed 9 mph (SSW)    
Max Wind Speed 18 mph    
Max Gust Speed 27 mph    
Visibility 10 miles    
Events      
T = Trace of Precipitation, MM = Missing Value Source: NWS Daily Summary

Daily Weather History Graph

Daily Weather History Graph

Search for Another Location

Airport:

Trip Planner

Search our weather history database for the weather conditions in past years. The results will help you decide how hot, cold, wet, or windy it might be!

Date:

Astronomy

Mar. 10, 2014 Rise Set
Actual Time 7:38 AM EDT 7:21 PM EDT
Civil Twilight 7:12 AM EDT 7:48 PM EDT
Nautical Twilight 6:40 AM EDT 8:19 PM EDT
Astronomical Twilight 6:09 AM EDT 8:51 PM EDT
Moon 2:04 PM EDT (3/10) 3:48 AM EDT (3/10)
Length of Visible Light 12h 36m
Length of Day
11h 42m
Waxing Gibbous, 70% of the Moon is Illuminated
Mar 10
Waxing Gibbous
Mar 16
Full
Mar 23
Last Quarter
Mar 30
New
Apr 7
First Quarter

Hourly Weather History & Observations

Time (EDT) Temp. Windchill Dew Point Humidity Pressure Visibility Wind Dir Wind Speed Gust Speed Precip Events Conditions
12:53 AM 37.9 °F 32.1 °F 21.0 °F 51% 30.01 in 10.0 mi SSW 8.1 mph - N/A   Clear
1:53 AM 37.9 °F 34.4 °F 21.9 °F 53% 29.99 in 10.0 mi SSW 4.6 mph - N/A   Clear
2:53 AM 39.0 °F 34.0 °F 23.0 °F 53% 29.97 in 10.0 mi SSW 6.9 mph - N/A   Clear
3:53 AM 39.0 °F 33.4 °F 24.1 °F 55% 29.94 in 10.0 mi SSW 8.1 mph - N/A   Clear
4:53 AM 39.0 °F 32.8 °F 24.1 °F 55% 29.93 in 10.0 mi SSW 9.2 mph - N/A   Partly Cloudy
5:53 AM 37.9 °F 31.5 °F 25.0 °F 60% 29.93 in 10.0 mi SSW 9.2 mph - N/A   Clear
6:53 AM 37.9 °F 30.5 °F 25.0 °F 60% 29.93 in 10.0 mi SSW 11.5 mph - N/A   Clear
7:53 AM 39.0 °F 32.8 °F 25.0 °F 57% 29.93 in 10.0 mi SSW 9.2 mph - N/A   Overcast
8:53 AM 39.9 °F 32.9 °F 26.1 °F 58% 29.93 in 10.0 mi SSW 11.5 mph 18.4 mph N/A   Overcast
9:53 AM 42.1 °F 37.1 °F 27.0 °F 55% 29.92 in 10.0 mi SW 8.1 mph - N/A   Overcast
10:53 AM 45.0 °F 39.7 °F 28.0 °F 52% 29.89 in 10.0 mi SW 10.4 mph 17.3 mph N/A   Overcast
11:53 AM 48.9 °F - 28.0 °F 44% 29.85 in 10.0 mi SSW 6.9 mph 18.4 mph N/A   Clear
12:53 PM 51.1 °F - 28.0 °F 41% 29.85 in 10.0 mi SSW 10.4 mph 18.4 mph N/A   Overcast
1:53 PM 53.1 °F - 28.0 °F 38% 29.80 in 10.0 mi SSW 9.2 mph - N/A   Overcast
2:53 PM 57.0 °F - 28.0 °F 33% 29.76 in 10.0 mi SW 16.1 mph 24.2 mph N/A   Overcast
3:53 PM 60.1 °F - 28.9 °F 31% 29.73 in 10.0 mi SW 10.4 mph 21.9 mph N/A   Scattered Clouds
4:53 PM 61.0 °F - 28.9 °F 30% 29.73 in 10.0 mi SW 12.7 mph 21.9 mph N/A   Clear
5:53 PM 61.0 °F - 30.0 °F 31% 29.70 in 10.0 mi SW 10.4 mph 21.9 mph N/A   Clear
6:53 PM 60.1 °F - 30.9 °F 33% 29.71 in 10.0 mi SW 8.1 mph - N/A   Clear
7:53 PM 57.9 °F - 32.0 °F 37% 29.72 in 10.0 mi SW 10.4 mph - N/A   Clear
8:53 PM 57.0 °F - 32.0 °F 39% 29.73 in 10.0 mi SSW 6.9 mph - N/A   Clear
9:53 PM 55.0 °F - 32.0 °F 42% 29.73 in 10.0 mi SSW 5.8 mph - N/A   Clear
10:53 PM 54.0 °F - 32.0 °F 43% 29.75 in 10.0 mi SSW 9.2 mph - N/A   Clear
11:53 PM 54.0 °F - 33.1 °F 45% 29.76 in 10.0 mi SSW 6.9 mph - N/A   Clear